�������l�o���
Date,Time,MP-1(��Sv/h),MP-2(��Sv/h),MP-3(��Sv/h),MP-4(��Sv/h),MP-5(��Sv/h),MP-6(��Sv/h),MP-7(��Sv/h),MP-8(��Sv/h),����,����(m/s),���J
2022/05/28,00:00,0.561,0.812,0.527,0.987,0.684,0.341,0.583,0.552,���k��,0.8,��
2022/05/28,00:10,0.560,0.813,0.528,0.987,0.682,0.340,0.584,0.552,��,2.0,��
2022/05/28,00:20,0.563,0.812,0.530,0.987,0.684,0.341,0.582,0.551,��,3.1,��
2022/05/28,00:30,0.562,0.812,0.528,0.989,0.682,0.341,0.583,0.552,�k��,4.6,��
2022/05/28,00:40,0.562,0.813,0.528,0.986,0.684,0.342,0.583,0.551,���k��,4.4,��
2022/05/28,00:50,0.562,0.813,0.528,0.987,0.683,0.340,0.583,0.553,���k��,3.5,��
2022/05/28,01:00,0.562,0.812,0.528,0.986,0.682,0.340,0.582,0.552,���k��,4.9,��
2022/05/28,01:10,0.562,0.812,0.528,0.989,0.684,0.341,0.582,0.551,���k��,5.1,��
2022/05/28,01:20,0.560,0.810,0.530,0.987,0.682,0.343,0.583,0.551,�k��,5.2,��
2022/05/28,01:30,0.562,0.812,0.529,0.988,0.684,0.341,0.582,0.552,�k��,4.8,��
2022/05/28,01:40,0.562,0.813,0.529,0.986,0.682,0.342,0.583,0.552,�k��,6.9,��
2022/05/28,01:50,0.562,0.814,0.532,0.986,0.684,0.341,0.585,0.552,�k��,5.9,��
2022/05/28,02:00,0.563,0.813,0.529,0.988,0.685,0.340,0.584,0.552,�k��,4.0,��
2022/05/28,02:10,0.563,0.812,0.530,0.987,0.686,0.342,0.584,0.550,�k��,4.8,��
2022/05/28,02:20,0.562,0.811,0.529,0.987,0.682,0.340,0.584,0.552,�k��,6.6,��
2022/05/28,02:30,0.563,0.813,0.531,0.989,0.682,0.341,0.584,0.550,�k��,5.6,��
2022/05/28,02:40,0.564,0.811,0.528,0.987,0.685,0.342,0.582,0.551,�k��,6.9,��
2022/05/28,02:50,0.564,0.811,0.530,0.988,0.684,0.342,0.585,0.551,�k��,4.9,��
2022/05/28,03:00,0.563,0.812,0.528,0.989,0.684,0.342,0.585,0.552,�k��,5.6,��
2022/05/28,03:10,0.563,0.814,0.530,0.989,0.685,0.342,0.586,0.552,�k�k��,3.8,��
2022/05/28,03:20,0.563,0.814,0.530,0.989,0.685,0.343,0.585,0.552,�k�k��,5.1,��
2022/05/28,03:30,0.565,0.812,0.531,0.988,0.687,0.342,0.584,0.551,�k��,6.6,��
2022/05/28,03:40,0.563,0.812,0.530,0.989,0.685,0.341,0.587,0.553,�k��,5.0,��
2022/05/28,03:50,0.564,0.813,0.528,0.992,0.685,0.342,0.585,0.553,�k��,3.8,��
2022/05/28,04:00,0.564,0.813,0.530,0.992,0.685,0.341,0.586,0.552,�k��,4.3,��
2022/05/28,04:10,0.563,0.812,0.531,0.991,0.685,0.341,0.585,0.552,�k��,6.6,��
2022/05/28,04:20,0.563,0.813,0.530,0.990,0.684,0.340,0.587,0.555,�k��,3.3,��
2022/05/28,04:30,0.564,0.811,0.530,0.992,0.686,0.342,0.584,0.554,�k��,3.6,��
2022/05/28,04:40,0.564,0.813,0.531,0.990,0.687,0.341,0.585,0.553,�k��,4.8,��
2022/05/28,04:50,0.563,0.813,0.530,0.992,0.687,0.341,0.587,0.553,�k�k��,4.5,��
2022/05/28,05:00,0.562,0.813,0.530,0.991,0.686,0.341,0.585,0.553,�k�k��,3.9,��
2022/05/28,05:10,0.563,0.813,0.529,0.991,0.689,0.342,0.586,0.554,�k�k��,2.3,��
2022/05/28,05:20,0.562,0.813,0.528,0.989,0.686,0.343,0.586,0.553,�k�k��,4.5,��
2022/05/28,05:30,0.563,0.813,0.529,0.990,0.685,0.341,0.587,0.551,���k��,5.5,��
2022/05/28,05:40,0.562,0.813,0.530,0.991,0.687,0.342,0.587,0.554,�k��,4.6,��
2022/05/28,05:50,0.565,0.815,0.531,0.992,0.687,0.340,0.588,0.554,�k�k��,3.0,��
2022/05/28,06:00,0.564,0.812,0.531,0.993,0.686,0.341,0.588,0.553,�k�k��,2.3,��
2022/05/28,06:10,0.564,0.816,0.529,0.994,0.687,0.341,0.587,0.553,�k�k��,2.6,��
2022/05/28,06:20,0.564,0.814,0.529,0.991,0.687,0.341,0.588,0.553,�k,3.0,��
2022/05/28,06:30,0.564,0.814,0.531,0.994,0.687,0.342,0.587,0.553,�k,2.6,��
2022/05/28,06:40,0.564,0.811,0.529,0.993,0.687,0.342,0.589,0.553,�k�k��,0.9,��
2022/05/28,06:50,0.563,0.813,0.529,0.992,0.687,0.339,0.587,0.554,�k�k��,2.3,��
2022/05/28,07:00,0.563,0.812,0.529,0.993,0.686,0.341,0.586,0.554,�쓌,0.6,��
2022/05/28,07:10,0.563,0.813,0.530,0.994,0.687,0.340,0.586,0.554,��,1.7,��
2022/05/28,07:20,0.563,0.816,0.529,0.994,0.688,0.340,0.586,0.555,��,4.2,��
2022/05/28,07:30,0.564,0.816,0.530,0.994,0.688,0.341,0.586,0.555,��,4.4,��
2022/05/28,07:40,0.562,0.816,0.531,0.993,0.688,0.341,0.586,0.554,��,4.1,��
2022/05/28,07:50,0.563,0.815,0.530,0.996,0.690,0.342,0.586,0.552,��,3.5,��
2022/05/28,08:00,0.564,0.817,0.531,0.995,0.689,0.340,0.585,0.551,��,5.0,��
2022/05/28,08:10,0.564,0.815,0.531,0.995,0.690,0.340,0.586,0.552,��,7.1,��
2022/05/28,08:20,0.565,0.817,0.531,0.997,0.690,0.341,0.585,0.551,���k��,4.5,��
2022/05/28,08:30,0.568,0.818,0.532,0.997,0.690,0.342,0.588,0.551,��,6.0,��
2022/05/28,08:40,0.567,0.817,0.533,0.995,0.693,0.341,0.586,0.551,��,5.8,��
2022/05/28,08:50,0.566,0.817,0.532,0.996,0.693,0.341,0.587,0.552,��,7.2,��
2022/05/28,09:00,0.566,0.819,0.533,0.995,0.693,0.342,0.589,0.552,��,6.9,��
2022/05/28,09:10,0.568,0.820,0.534,0.996,0.692,0.342,0.588,0.552,��,5.5,��
2022/05/28,09:20,0.567,0.819,0.532,0.996,0.691,0.342,0.587,0.553,��,9.2,��
2022/05/28,09:30,0.568,0.822,0.535,0.995,0.692,0.341,0.588,0.553,��,9.5,��
2022/05/28,09:40,0.568,0.820,0.535,0.996,0.693,0.342,0.586,0.555,���쐼,11.7,��
2022/05/28,09:50,0.569,0.821,0.533,0.997,0.693,0.343,0.587,0.553,��,9.6,��
2022/05/28,10:00,0.571,0.822,0.534,0.997,0.695,0.343,0.587,0.554,��,11.1,��
2022/05/28,10:10,0.570,0.822,0.535,0.995,0.694,0.342,0.588,0.553,��,8.6,��
2022/05/28,10:20,0.571,0.823,0.536,0.997,0.696,0.344,0.585,0.555,��,9.1,��
2022/05/28,10:30,0.570,0.823,0.533,0.998,0.694,0.343,0.587,0.554,��,10.2,��
2022/05/28,10:40,0.570,0.821,0.536,0.997,0.698,0.344,0.587,0.554,��,8.4,��
2022/05/28,10:50,0.571,0.825,0.535,0.998,0.697,0.342,0.590,0.556,��,10.0,��
2022/05/28,11:00,0.571,0.823,0.535,0.998,0.698,0.342,0.588,0.555,��,11.4,��
2022/05/28,11:10,0.573,0.824,0.536,0.999,0.698,0.343,0.587,0.556,���쐼,8.1,��
2022/05/28,11:20,0.570,0.826,0.536,0.999,0.700,0.344,0.588,0.554,��,9.6,��
2022/05/28,11:30,0.573,0.824,0.537,1.000,0.699,0.343,0.589,0.554,��,10.6,��
2022/05/28,11:40,0.573,0.827,0.537,1.002,0.700,0.343,0.589,0.556,���쐼,9.7,��
2022/05/28,11:50,0.572,0.827,0.538,1.000,0.699,0.344,0.588,0.555,���쐼,13.3,��
2022/05/28,12:00,0.574,0.829,0.538,1.003,0.701,0.343,0.589,0.556,���쐼,11.7,��
2022/05/28,12:10,0.573,0.828,0.539,1.001,0.702,0.344,0.590,0.558,��,11.6,��
2022/05/28,12:20,0.573,0.828,0.540,1.004,0.702,0.343,0.589,0.557,���쐼,11.3,��
2022/05/28,12:30,0.574,0.830,0.537,1.004,0.702,0.345,0.590,0.557,���쐼,8.9,��
2022/05/28,12:40,0.575,0.827,0.539,1.004,0.704,0.345,0.590,0.557,��,8.2,��
2022/05/28,12:50,0.574,0.829,0.538,1.003,0.703,0.343,0.590,0.557,���쐼,9.5,��
2022/05/28,13:00,0.574,0.827,0.539,1.006,0.703,0.344,0.591,0.557,���쐼,10.7,��
2022/05/28,13:10,0.575,0.828,0.539,1.004,0.704,0.344,0.590,0.558,���쐼,8.8,��
2022/05/28,13:20,0.576,0.829,0.539,1.002,0.703,0.344,0.590,0.557,��,8.3,��
2022/05/28,13:30,0.575,0.832,0.540,1.005,0.705,0.344,0.590,0.557,��,7.8,��
2022/05/28,13:40,0.575,0.830,0.538,1.005,0.704,0.345,0.590,0.558,���쐼,6.8,��
2022/05/28,13:50,0.575,0.830,0.540,1.009,0.705,0.345,0.590,0.557,���쐼,7.3,��
2022/05/28,14:00,0.575,0.827,0.540,1.005,0.704,0.344,0.589,0.558,��,7.2,��
2022/05/28,14:10,0.574,0.830,0.540,1.008,0.704,0.345,0.590,0.558,��,8.3,��
2022/05/28,14:20,0.574,0.832,0.540,1.007,0.705,0.345,0.591,0.557,��,7.5,��
2022/05/28,14:30,0.576,0.828,0.539,1.006,0.705,0.345,0.589,0.558,��,8.6,��
2022/05/28,14:40,0.576,0.831,0.540,1.008,0.707,0.344,0.590,0.558,��,7.5,��
2022/05/28,14:50,0.577,0.833,0.541,1.007,0.705,0.345,0.590,0.559,��,9.6,��
2022/05/28,15:00,0.577,0.832,0.541,1.006,0.708,0.345,0.589,0.559,��,11.9,��
2022/05/28,15:10,0.577,0.833,0.541,1.010,0.707,0.345,0.591,0.559,���쐼,8.0,��
2022/05/28,15:20,0.577,0.834,0.543,1.008,0.707,0.344,0.590,0.558,��,8.6,��
2022/05/28,15:30,0.578,0.833,0.541,1.008,0.707,0.345,0.591,0.559,��,9.9,��
2022/05/28,15:40,0.577,0.835,0.540,1.009,0.707,0.345,0.590,0.557,��,7.3,��
2022/05/28,15:50,0.576,0.835,0.541,1.008,0.708,0.345,0.590,0.557,��,7.3,��
2022/05/28,16:00,0.576,0.833,0.541,1.011,0.707,0.344,0.592,0.558,��,10.4,��
2022/05/28,16:10,0.577,0.835,0.541,1.010,0.708,0.343,0.590,0.560,��,8.5,��
2022/05/28,16:20,0.576,0.835,0.541,1.011,0.707,0.344,0.590,0.557,��,6.5,��
2022/05/28,16:30,0.577,0.835,0.540,1.013,0.707,0.345,0.590,0.557,��,9.6,��
2022/05/28,16:40,0.577,0.834,0.541,1.013,0.710,0.345,0.591,0.557,��,9.3,��
2022/05/28,16:50,0.577,0.836,0.541,1.013,0.707,0.345,0.591,0.559,��,6.2,��
2022/05/28,17:00,0.577,0.835,0.540,1.011,0.709,0.344,0.590,0.559,��,7.9,��
2022/05/28,17:10,0.577,0.834,0.541,1.012,0.708,0.344,0.590,0.558,���쐼,6.5,��
2022/05/28,17:20,0.577,0.834,0.540,1.012,0.707,0.344,0.590,0.557,��,4.9,��
2022/05/28,17:30,0.577,0.834,0.541,1.012,0.707,0.344,0.590,0.558,���쐼,6.2,��
2022/05/28,17:40,0.577,0.835,0.539,1.012,0.709,0.344,0.590,0.558,��,6.0,��
2022/05/28,17:50,0.577,0.835,0.541,1.012,0.708,0.345,0.590,0.558,���쐼,4.7,��
2022/05/28,18:00,0.578,0.836,0.541,1.012,0.709,0.346,0.591,0.559,��,7.4,��
2022/05/28,18:10,0.576,0.834,0.541,1.013,0.709,0.345,0.589,0.561,��,8.9,��
2022/05/28,18:20,0.576,0.835,0.540,1.014,0.709,0.346,0.590,0.561,��,6.9,��
2022/05/28,18:30,0.575,0.837,0.540,1.013,0.710,0.345,0.590,0.562,��,4.5,��
2022/05/28,18:40,0.578,0.838,0.541,1.014,0.709,0.346,0.590,0.560,��,5.1,��
2022/05/28,18:50,0.578,0.837,0.540,1.015,0.709,0.346,0.590,0.559,���k��,2.8,��
2022/05/28,19:00,0.577,0.838,0.539,1.015,0.712,0.346,0.590,0.560,��,4.3,��
2022/05/28,19:10,0.577,0.839,0.539,1.017,0.713,0.345,0.589,0.560,��,3.5,��
2022/05/28,19:20,0.578,0.836,0.542,1.017,0.711,0.346,0.590,0.561,��,4.6,��
2022/05/28,19:30,0.580,0.837,0.544,1.016,0.712,0.345,0.591,0.560,��,4.1,��
2022/05/28,19:40,0.578,0.838,0.544,1.017,0.712,0.345,0.592,0.561,��,4.6,��
2022/05/28,19:50,0.578,0.837,0.543,1.019,0.713,0.346,0.592,0.560,���쐼,5.0,��
2022/05/28,20:00,0.579,0.838,0.542,1.017,0.712,0.346,0.593,0.560,���쐼,5.3,��
2022/05/28,20:10,0.578,0.837,0.543,1.017,0.711,0.345,0.593,0.561,���쐼,4.6,��
2022/05/28,20:20,0.579,0.839,0.543,1.016,0.711,0.345,0.593,0.561,���쐼,6.3,��
2022/05/28,20:30,0.577,0.837,0.543,1.016,0.711,0.346,0.593,0.560,���쐼,4.5,��
2022/05/28,20:40,0.577,0.840,0.543,1.016,0.713,0.347,0.593,0.561,�쐼,5.2,��
2022/05/28,20:50,0.579,0.838,0.543,1.018,0.711,0.345,0.592,0.559,���쐼,5.4,��
2022/05/28,21:00,0.579,0.840,0.542,1.019,0.712,0.346,0.593,0.560,�쐼,5.2,��
2022/05/28,21:10,0.577,0.836,0.542,1.017,0.713,0.346,0.593,0.559,���쐼,5.9,��
2022/05/28,21:20,0.577,0.839,0.543,1.017,0.712,0.347,0.593,0.559,��,6.6,��
2022/05/28,21:30,0.578,0.837,0.542,1.018,0.712,0.345,0.594,0.561,��,5.3,��
2022/05/28,21:40,0.577,0.839,0.543,1.017,0.714,0.346,0.594,0.561,���쐼,5.5,��
2022/05/28,21:50,0.577,0.839,0.544,1.018,0.713,0.346,0.592,0.560,���쐼,5.3,��
2022/05/28,22:00,0.579,0.839,0.541,1.017,0.713,0.345,0.593,0.559,���쐼,4.9,��
2022/05/28,22:10,0.579,0.838,0.542,1.015,0.712,0.345,0.593,0.560,���쐼,5.0,��
2022/05/28,22:20,0.577,0.839,0.543,1.017,0.713,0.345,0.594,0.559,���쐼,3.8,��
2022/05/28,22:30,0.577,0.839,0.541,1.017,0.711,0.346,0.596,0.560,��,3.3,��
2022/05/28,22:40,0.577,0.841,0.543,1.021,0.712,0.345,0.595,0.560,��,3.0,��
2022/05/28,22:50,0.578,0.840,0.543,1.014,0.712,0.346,0.593,0.561,��,4.0,��
2022/05/28,23:00,0.578,0.841,0.542,1.017,0.712,0.347,0.593,0.560,��,3.6,��
2022/05/28,23:10,0.578,0.839,0.543,1.016,0.711,0.344,0.593,0.561,��,4.3,��
2022/05/28,23:20,0.578,0.838,0.543,1.015,0.710,0.346,0.594,0.560,���k��,4.5,��
2022/05/28,23:30,0.579,0.837,0.541,1.017,0.712,0.345,0.593,0.559,��,3.3,��
2022/05/28,23:40,0.578,0.840,0.541,1.018,0.713,0.346,0.594,0.561,���k��,3.1,��
2022/05/28,23:50,0.578,0.837,0.544,1.018,0.710,0.345,0.593,0.559,��,3.3,��
